📊 Raw Sensor Data
Showing records 37601 to 37625 of 84,915 total
| ID | Distance (ft) | Battery V | Battery A | Int Temp (°F) | Int Humid (%) | Ext Temp (°F) | Solar V | RSSI | SNR | Time Stamp |
|---|---|---|---|---|---|---|---|---|---|---|
| 47327 | 15.2 | 3.91 | 6 | 90 | 46 | 82 | 5.10 | -70 | 7 | 07/25/2025 05:15 PM |
| 47326 | 15.2 | 3.91 | 6 | 89 | 46 | 81 | 5.10 | -71 | 8 | 07/25/2025 05:00 PM |
| 47325 | 15.2 | 3.91 | 6 | 90 | 46 | 81 | 5.10 | -70 | 8 | 07/25/2025 04:45 PM |
| 47324 | 15.2 | 3.93 | 0 | 90 | 46 | 80 | 5.10 | -69 | 8 | 07/25/2025 04:30 PM |
| 47323 | 15.2 | 3.91 | 0 | 91 | 45 | 82 | 5.10 | -70 | 8 | 07/25/2025 04:15 PM |
| 47322 | 15.3 | 4.07 | 6 | 91 | 45 | 83 | 5.10 | -70 | 8 | 07/25/2025 04:00 PM |
| 47321 | 15.3 | 3.92 | 6 | 91 | 44 | 82 | 5.10 | -72 | 7 | 07/25/2025 03:45 PM |
| 47320 | 15.2 | 3.91 | 0 | 91 | 44 | 85 | 5.10 | -71 | 6 | 07/25/2025 03:30 PM |
| 47319 | 15.3 | 3.96 | 0 | 91 | 44 | 84 | 5.10 | -71 | 8 | 07/25/2025 03:15 PM |
| 47318 | 15.2 | 3.91 | 0 | 90 | 43 | 81 | 5.10 | -71 | 7 | 07/25/2025 03:00 PM |
| 47317 | 15.2 | 3.91 | 0 | 91 | 43 | 83 | 5.10 | -70 | 8 | 07/25/2025 02:45 PM |
| 47316 | 15.2 | 3.91 | 0 | 90 | 43 | 82 | 5.10 | -71 | 7 | 07/25/2025 02:30 PM |
| 47315 | 15.2 | 3.91 | 6 | 90 | 42 | 82 | 5.10 | -70 | 8 | 07/25/2025 02:15 PM |
| 47314 | 15.2 | 4.09 | 6 | 89 | 41 | 83 | 5.10 | -70 | 7 | 07/25/2025 02:00 PM |
| 47313 | 15.2 | 3.93 | 7 | 88 | 41 | 82 | 5.10 | -70 | 7 | 07/25/2025 01:45 PM |
| 47312 | 15.2 | 3.91 | 6 | 86 | 42 | 80 | 5.10 | -71 | 8 | 07/25/2025 01:30 PM |
| 47311 | 15.2 | 3.91 | 0 | 85 | 42 | 80 | 5.10 | -71 | 7 | 07/25/2025 01:15 PM |
| 47310 | 15.2 | 3.91 | 0 | 83 | 43 | 77 | 5.10 | -71 | 8 | 07/25/2025 01:00 PM |
| 47309 | 15.2 | 4.11 | 6 | 83 | 42 | 78 | 5.10 | -70 | 8 | 07/25/2025 12:45 PM |
| 47308 | 15.2 | 3.92 | 7 | 82 | 43 | 80 | 5.10 | -72 | 7 | 07/25/2025 12:30 PM |
| 47307 | 15.3 | 3.91 | 0 | 80 | 43 | 78 | 5.10 | -71 | 7 | 07/25/2025 12:15 PM |
| 47306 | 15.3 | 3.91 | 7 | 79 | 43 | 78 | 5.10 | -72 | 8 | 07/25/2025 12:00 PM |
| 47305 | 15.3 | 3.91 | 7 | 78 | 43 | 78 | 5.10 | -71 | 8 | 07/25/2025 11:45 AM |
| 47304 | 15.3 | 3.91 | 6 | 77 | 43 | 74 | 5.10 | -71 | 7 | 07/25/2025 11:30 AM |
| 47303 | 15.3 | 3.91 | 7 | 76 | 43 | 74 | 5.10 | -72 | 8 | 07/25/2025 11:15 AM |